SKW4768 KDCA-KROA

Flight info

Callsign SKW4768
Flight time 0h 36m
Altitude 22000
Route CLTCH3 MAULS
Aircraft CRJ7/M-SDFGIRWY/S

Departure

Time 2026-05-08 23:58
Airport Ronald Reagan Washington National Airport (KDCA)

Arrival

Time 2026-05-09 00:34
Airport Roanoke–Blacksburg Regional Airport (KROA)
Time Latitude Longitude Altitude Speed Heading
2026-05-08 23:32 38.85668 -77.04259 26 ft 0 kts 169°
2026-05-08 23:39 38.85671 -77.04259 26 ft 3 kts 168°
2026-05-08 23:40 38.85693 -77.04273 28 ft 4 kts 134°
2026-05-08 23:40 38.85701 -77.04301 28 ft 4 kts 83°
2026-05-08 23:40 38.85697 -77.04317 28 ft 1 kts 71°
2026-05-08 23:40 38.85697 -77.04319 28 ft 0 kts 71°
2026-05-08 23:42 38.85697 -77.04318 28 ft 1 kts 71°
2026-05-08 23:43 38.85700 -77.04309 28 ft 1 kts 71°
2026-05-08 23:43 38.85704 -77.04294 27 ft 2 kts 71°
2026-05-08 23:43 38.85708 -77.04275 26 ft 2 kts 72°
2026-05-08 23:43 38.85714 -77.04255 26 ft 2 kts 72°
2026-05-08 23:44 38.85719 -77.04234 26 ft 1 kts 72°
2026-05-08 23:44 38.85723 -77.04219 27 ft 3 kts 72°
2026-05-08 23:45 38.85732 -77.04180 27 ft 6 kts 72°
2026-05-08 23:45 38.85735 -77.04125 28 ft 6 kts 107°
2026-05-08 23:45 38.85706 -77.04084 28 ft 7 kts 142°
2026-05-08 23:45 38.85686 -77.04030 27 ft 7 kts 81°
2026-05-08 23:46 38.85725 -77.03978 27 ft 9 kts 13°
2026-05-08 23:46 38.85794 -77.03982 26 ft 11 kts 355°
2026-05-08 23:46 38.85866 -77.03989 25 ft 8 kts 356°
2026-05-08 23:46 38.85901 -77.03990 25 ft 1 kts
2026-05-08 23:47 38.85905 -77.03990 27 ft 0 kts
2026-05-08 23:49 38.85912 -77.03989 25 ft 2 kts
2026-05-08 23:49 38.85927 -77.03987 25 ft 2 kts
2026-05-08 23:49 38.85944 -77.03984 25 ft 3 kts
2026-05-08 23:50 38.85975 -77.03978 24 ft 6 kts 10°
2026-05-08 23:50 38.85990 -77.03973 24 ft 0 kts 15°
2026-05-08 23:56 38.86001 -77.03969 25 ft 5 kts 15°
2026-05-08 23:56 38.86048 -77.03952 23 ft 9 kts 15°
2026-05-08 23:56 38.86092 -77.03895 22 ft 7 kts 84°
2026-05-08 23:57 38.86072 -77.03870 18 ft 3 kts 178°
2026-05-08 23:57 38.85966 -77.03859 24 ft 41 kts 175°
2026-05-08 23:57 38.85479 -77.03810 24 ft 98 kts 175°
2026-05-08 23:57 38.84643 -77.03725 39 ft 138 kts 175°
2026-05-08 23:58 38.83697 -77.03625 554 ft 134 kts 175°
2026-05-08 23:58 38.82762 -77.03553 1025 ft 137 kts 181°
2026-05-08 23:58 38.81808 -77.03591 1466 ft 139 kts 181°
2026-05-08 23:58 38.80805 -77.03552 1890 ft 148 kts 182°
2026-05-08 23:59 38.79739 -77.03528 2281 ft 161 kts 182°
2026-05-08 23:59 38.78589 -77.03542 2694 ft 169 kts 184°
2026-05-08 23:59 38.77356 -77.03523 2914 ft 192 kts 183°
2026-05-08 23:59 38.75999 -77.03797 3292 ft 207 kts 211°
2026-05-09 00:00 38.75082 -77.05231 3872 ft 214 kts 245°
2026-05-09 00:00 38.74651 -77.07109 4384 ft 231 kts 259°
2026-05-09 00:00 38.74503 -77.09233 4800 ft 248 kts 265°
2026-05-09 00:00 38.74411 -77.11467 5437 ft 253 kts 266°
2026-05-09 00:01 38.74137 -77.13694 6130 ft 255 kts 252°
2026-05-09 00:01 38.73477 -77.15811 6812 ft 258 kts 247°
2026-05-09 00:01 38.72700 -77.17891 7573 ft 260 kts 245°
2026-05-09 00:01 38.71889 -77.19979 8385 ft 264 kts 245°
2026-05-09 00:02 38.71080 -77.22100 9185 ft 267 kts 247°
2026-05-09 00:02 38.70311 -77.24275 9959 ft 270 kts 249°
2026-05-09 00:02 38.69579 -77.26493 10696 ft 271 kts 250°
2026-05-09 00:02 38.68869 -77.28737 11442 ft 273 kts 251°
2026-05-09 00:03 38.68150 -77.30996 12190 ft 275 kts 251°
2026-05-09 00:03 38.67430 -77.33259 12917 ft 277 kts 252°
2026-05-09 00:03 38.66696 -77.35568 13705 ft 279 kts 252°
2026-05-09 00:03 38.65967 -77.37862 14481 ft 275 kts 252°
2026-05-09 00:04 38.65236 -77.40130 15176 ft 278 kts 252°
2026-05-09 00:04 38.64478 -77.42513 15295 ft 300 kts 252°
2026-05-09 00:04 38.63668 -77.45058 15460 ft 318 kts 252°
2026-05-09 00:04 38.62812 -77.47726 15872 ft 327 kts 252°
2026-05-09 00:05 38.61948 -77.50425 16506 ft 330 kts 252°
2026-05-09 00:05 38.61086 -77.53110 17133 ft 332 kts 252°
2026-05-09 00:05 38.60194 -77.55885 17760 ft 334 kts 252°
2026-05-09 00:05 38.59320 -77.58602 18350 ft 336 kts 252°
2026-05-09 00:06 38.58429 -77.61376 18870 ft 338 kts 252°
2026-05-09 00:06 38.57532 -77.64159 19403 ft 339 kts 252°
2026-05-09 00:06 38.56630 -77.66954 19922 ft 341 kts 252°
2026-05-09 00:06 38.55727 -77.69763 20427 ft 342 kts 252°
2026-05-09 00:07 38.54817 -77.72579 20918 ft 344 kts 252°
2026-05-09 00:07 38.53898 -77.75410 21399 ft 346 kts 252°
2026-05-09 00:07 38.52943 -77.78254 21724 ft 354 kts 248°
2026-05-09 00:07 38.51570 -77.80936 21862 ft 369 kts 239°
2026-05-09 00:08 38.49918 -77.83506 21931 ft 378 kts 234°
2026-05-09 00:08 38.48119 -77.85974 21938 ft 379 kts 233°
2026-05-09 00:08 38.46323 -77.88410 21958 ft 375 kts 233°
2026-05-09 00:08 38.44553 -77.90837 21969 ft 371 kts 235°
2026-05-09 00:09 38.42984 -77.93417 21966 ft 365 kts 240°
2026-05-09 00:09 38.41559 -77.96080 21977 ft 363 kts 242°
2026-05-09 00:09 38.40148 -77.98737 21969 ft 362 kts 241°
2026-05-09 00:09 38.38980 -78.00909 21966 ft 361 kts 241°
2026-05-09 00:10 38.37561 -78.03538 21964 ft 359 kts 241°
2026-05-09 00:10 38.36141 -78.06154 21965 ft 359 kts 240°
2026-05-09 00:10 38.34705 -78.08750 21962 ft 358 kts 240°
2026-05-09 00:10 38.33266 -78.11333 21964 ft 357 kts 240°
2026-05-09 00:11 38.31835 -78.13908 21960 ft 356 kts 240°
2026-05-09 00:11 38.30407 -78.16478 21968 ft 355 kts 240°
2026-05-09 00:11 38.28976 -78.19041 21937 ft 355 kts 240°
2026-05-09 00:11 38.27568 -78.21567 21951 ft 354 kts 240°
2026-05-09 00:12 38.26147 -78.24117 21961 ft 353 kts 240°
2026-05-09 00:12 38.24707 -78.26696 21965 ft 353 kts 240°
2026-05-09 00:12 38.23299 -78.29217 21966 ft 355 kts 240°
2026-05-09 00:12 38.21864 -78.31775 21965 ft 356 kts 240°
2026-05-09 00:13 38.20424 -78.34345 21966 ft 358 kts 240°
2026-05-09 00:13 38.18969 -78.36942 21975 ft 365 kts 240°
2026-05-09 00:13 38.17542 -78.39642 21973 ft 369 kts 245°
2026-05-09 00:13 38.16426 -78.42593 21979 ft 373 kts 251°
2026-05-09 00:14 38.15493 -78.45691 21983 ft 379 kts 253°
2026-05-09 00:14 38.14589 -78.48862 21983 ft 385 kts 253°
2026-05-09 00:14 38.13661 -78.52076 21985 ft 389 kts 252°
2026-05-09 00:14 38.12679 -78.55265 21978 ft 386 kts 252°
2026-05-09 00:15 38.11690 -78.58423 21971 ft 383 kts 252°
2026-05-09 00:15 38.10711 -78.61553 21970 ft 380 kts 252°
2026-05-09 00:15 38.09739 -78.64660 21946 ft 377 kts 251°
2026-05-09 00:15 38.08768 -78.67745 21963 ft 375 kts 251°
2026-05-09 00:16 38.07808 -78.70811 21964 ft 373 kts 252°
2026-05-09 00:16 38.06849 -78.73869 21958 ft 372 kts 251°
2026-05-09 00:16 38.05891 -78.76904 21967 ft 370 kts 252°
2026-05-09 00:16 38.04939 -78.79930 21969 ft 369 kts 252°
2026-05-09 00:17 38.03997 -78.82928 21980 ft 360 kts 252°
2026-05-09 00:17 38.03071 -78.85870 21607 ft 362 kts 251°
2026-05-09 00:17 38.02132 -78.88847 21099 ft 364 kts 251°
2026-05-09 00:17 38.01191 -78.91828 20599 ft 365 kts 251°
2026-05-09 00:18 38.00240 -78.94813 20112 ft 366 kts 251°
2026-05-09 00:18 37.99455 -78.97286 19713 ft 367 kts 251°
2026-05-09 00:18 37.98509 -79.00293 19237 ft 367 kts 251°
2026-05-09 00:18 37.97727 -79.02759 18797 ft 360 kts 251°
2026-05-09 00:19 37.96803 -79.05680 18151 ft 355 kts 251°
2026-05-09 00:19 37.95870 -79.08560 17370 ft 353 kts 251°
2026-05-09 00:19 37.94954 -79.11434 16615 ft 350 kts 251°
2026-05-09 00:19 37.94050 -79.14295 15905 ft 348 kts 251°
2026-05-09 00:20 37.93154 -79.17134 15192 ft 346 kts 251°
2026-05-09 00:20 37.92256 -79.19950 14481 ft 344 kts 251°
2026-05-09 00:20 37.91367 -79.22745 13790 ft 341 kts 251°
2026-05-09 00:20 37.90485 -79.25488 13003 ft 329 kts 251°
2026-05-09 00:21 37.89643 -79.28127 12242 ft 318 kts 251°
2026-05-09 00:21 37.88839 -79.30649 11613 ft 307 kts 250°
2026-05-09 00:21 37.87877 -79.33012 11331 ft 301 kts 236°
2026-05-09 00:21 37.86478 -79.34955 11430 ft 301 kts 230°
2026-05-09 00:22 37.84983 -79.36769 11429 ft 293 kts 227°
2026-05-09 00:22 37.83496 -79.38452 11425 ft 283 kts 226°
2026-05-09 00:22 37.82040 -79.40080 11408 ft 276 kts 226°
2026-05-09 00:22 37.80621 -79.41679 11394 ft 270 kts 227°
2026-05-09 00:23 37.79251 -79.43267 11373 ft 265 kts 227°
2026-05-09 00:23 37.77893 -79.44860 11137 ft 268 kts 227°
2026-05-09 00:23 37.76529 -79.46452 10918 ft 265 kts 227°
2026-05-09 00:23 37.75188 -79.48015 10690 ft 261 kts 227°
2026-05-09 00:24 37.73878 -79.49573 10465 ft 257 kts 227°
2026-05-09 00:24 37.72545 -79.51134 10211 ft 265 kts 226°
2026-05-09 00:24 37.71172 -79.52718 9898 ft 265 kts 227°
2026-05-09 00:24 37.69845 -79.54270 9567 ft 255 kts 227°
2026-05-09 00:25 37.68573 -79.55776 9222 ft 247 kts 227°
2026-05-09 00:25 37.67340 -79.57233 8891 ft 239 kts 227°
2026-05-09 00:25 37.66139 -79.58646 8564 ft 234 kts 226°
2026-05-09 00:25 37.64944 -79.60048 8286 ft 234 kts 226°
2026-05-09 00:26 37.63743 -79.61437 8024 ft 234 kts 225°
2026-05-09 00:26 37.62549 -79.62820 7778 ft 233 kts 226°
2026-05-09 00:26 37.61363 -79.64203 7479 ft 231 kts 225°
2026-05-09 00:26 37.60189 -79.65581 7246 ft 230 kts 226°
2026-05-09 00:27 37.59015 -79.66952 6964 ft 230 kts 225°
2026-05-09 00:27 37.57826 -79.68300 6672 ft 230 kts 224°
2026-05-09 00:27 37.56648 -79.69660 6366 ft 230 kts 224°
2026-05-09 00:27 37.55479 -79.71012 6173 ft 226 kts 224°
2026-05-09 00:28 37.54334 -79.72335 6003 ft 221 kts 224°
2026-05-09 00:28 37.53232 -79.73610 5818 ft 215 kts 223°
2026-05-09 00:28 37.52129 -79.74890 5626 ft 211 kts 223°
2026-05-09 00:28 37.51048 -79.76141 5445 ft 215 kts 223°
2026-05-09 00:29 37.49938 -79.77391 5493 ft 213 kts 220°
2026-05-09 00:29 37.48801 -79.78584 5597 ft 211 kts 220°
2026-05-09 00:29 37.47652 -79.79751 5547 ft 215 kts 218°
2026-05-09 00:29 37.46464 -79.80881 5395 ft 217 kts 217°
2026-05-09 00:30 37.45647 -79.81646 5276 ft 217 kts 217°
2026-05-09 00:30 37.44433 -79.82778 5099 ft 217 kts 216°
2026-05-09 00:30 37.43242 -79.83942 4878 ft 216 kts 219°
2026-05-09 00:30 37.42127 -79.85196 4505 ft 215 kts 221°
2026-05-09 00:31 37.41037 -79.86443 3993 ft 205 kts 220°
2026-05-09 00:31 37.39683 -79.87927 3435 ft 186 kts 220°
2026-05-09 00:31 37.39067 -79.88656 3306 ft 175 kts 221°
2026-05-09 00:31 37.38248 -79.89696 3203 ft 162 kts 223°
2026-05-09 00:32 37.37491 -79.90713 2881 ft 158 kts 224°
2026-05-09 00:32 37.36810 -79.91662 2681 ft 138 kts 222°
2026-05-09 00:32 37.36144 -79.92604 2399 ft 143 kts 225°
2026-05-09 00:32 37.35557 -79.93505 2126 ft 134 kts 224°
2026-05-09 00:33 37.34932 -79.94394 1830 ft 137 kts 226°
2026-05-09 00:33 37.34325 -79.95327 1630 ft 140 kts 226°
2026-05-09 00:33 37.33688 -79.96247 1435 ft 128 kts 224°
2026-05-09 00:33 37.33133 -79.97060 1201 ft 120 kts 224°
2026-05-09 00:34 37.32679 -79.97727 1184 ft 84 kts 229°
2026-05-09 00:34 37.32452 -79.98062 1178 ft 29 kts 230°
2026-05-09 00:34 37.32344 -79.98222 1173 ft 17 kts 229°
2026-05-09 00:34 37.32272 -79.98298 1172 ft 12 kts 182°
2026-05-09 00:35 37.32204 -79.98243 1171 ft 11 kts 127°
2026-05-09 00:35 37.32198 -79.98171 1172 ft 4 kts 68°
2026-05-09 00:35 37.32199 -79.98168 1171 ft 0 kts 68°
2026-05-09 00:36 37.32202 -79.98162 1172 ft 3 kts 64°
2026-05-09 00:36 37.32211 -79.98138 1173 ft 3 kts 64°
2026-05-09 00:36 37.32219 -79.98119 1175 ft 2 kts 64°
2026-05-09 00:37 37.32224 -79.98104 1173 ft 2 kts 64°
2026-05-09 00:37 37.32230 -79.98089 1174 ft 5 kts 64°
2026-05-09 00:37 37.32256 -79.98023 1176 ft 9 kts 63°
2026-05-09 00:37 37.32284 -79.97953 1176 ft 9 kts 64°
2026-05-09 00:38 37.32311 -79.97884 1178 ft 9 kts 63°
2026-05-09 00:38 37.32342 -79.97820 1179 ft 0 kts 58°
2026-05-09 00:40 37.32347 -79.97808 1180 ft 5 kts 58°
2026-05-09 00:40 37.32379 -79.97741 1181 ft 12 kts 59°
2026-05-09 00:41 37.32400 -79.97574 1180 ft 11 kts 148°
2026-05-09 00:41 37.32329 -79.97520 1178 ft 13 kts 148°
2026-05-09 00:41 37.32248 -79.97456 1179 ft 14 kts 147°
2026-05-09 00:41 37.32165 -79.97391 1178 ft 11 kts 136°
2026-05-09 00:42 37.32167 -79.97308 1174 ft 9 kts 59°
2026-05-09 00:42 37.32151 -79.97253 1175 ft 5 kts 144°
2026-05-09 00:42 37.32142 -79.97245 1174 ft 0 kts 146°
2026-05-09 00:42 37.32138 -79.97242 1174 ft 0 kts 146°
2026-05-09 00:43 37.32130 -79.97236 1177 ft 3 kts 146°
2026-05-09 00:43 37.32119 -79.97230 1175 ft 0 kts 187°
2026-05-09 00:43 37.32114 -79.97234 1175 ft 3 kts 222°
2026-05-09 00:43 37.32100 -79.97257 1172 ft 2 kts 238°
2026-05-09 00:44 37.32099 -79.97260 1173 ft 0 kts 238°